2022-095B (53368 NORAD) Tracking and Keplerian Element Data

This shows tracking and keplerian element data for the satellite.

Feedback or suggestion? Click here.




ElementValue
Catalog53368
Name2022-095B
Epoch Orbit746
Epoch Day270.19058899
Epoch Year2022
RAAN343.5936
Inclination97.4057
Eccentricity0.0076661
Argument of Perigee263.9439
Mean Anonmoly180.2662
Mean Motion15.25113321
Decay Rate9.072E-05
L11 53368U 22095B 22270.19058899 .00009072 00000+0 33587-3 0 9991
L22 53368 97.4057 343.5936 0076661 263.9439 180.2662 15.25113321 7460

Live tracking and technical data element details for 2022-095B (NORAD 53368). 2022-095B can be tracked NOW for your location showing map with azimuth and elevation plus other details from your city location.

Track the satellite on the map from your city or location and see movement details for azimuth, elevation, latitude, longitude, range, height, and movement on the map or in text.







IsCatalogInMostPopularTable: catalog: 53368, numindb: 4
Update: records affected: 1



GetName: 53368 2022-095B

Hit Count: updated at: Fri, 30 Sep 2022 02:34:00 GMT